Time,TemperatureF,DewpointF,PressureIn,WindDirection,WindDirectionDegrees,WindSpeedMPH,WindSpeedGustMPH,Humidity,HourlyPrecipIn,Conditions,Clouds,dailyrainin,SolarRadiationWatts/m^2,SoftwareType,DateUTC
2013-10-01 00:00:00,45.6,42.5,29.95,West,270,0.0,0.0,89,0.00,CL,CL,0.36,0.0,WeatherDisplay:10.37,2013-10-01 04:00:00,
2013-10-01 00:04:00,47.1,44.0,29.97,WSW,238,0.0,0.0,89,0.00,CLR,SCT,0.00,,WeatherDisplay:10.37,2013-10-01 04:04:00,
2013-10-01 00:19:00,46.8,43.7,29.97,WSW,239,0.0,0.0,89,0.00,CLR,SCT,0.00,,WeatherDisplay:10.37,2013-10-01 04:19:00,
2013-10-01 00:33:00,46.8,43.7,29.97,SW,228,0.0,0.0,89,0.00,CLR,SCT,0.00,,WeatherDisplay:10.37,2013-10-01 04:33:00,
2013-10-01 00:48:00,47.1,44.0,29.96,SW,228,0.0,0.0,89,0.00,CLR,SCT,0.00,,WeatherDisplay:10.37,2013-10-01 04:48:00,
2013-10-01 01:00:00,44.8,42.6,29.95,WNW,293,0.0,0.0,92,0.00,CL,CL,0.36,0.0,WeatherDisplay:10.37,2013-10-01 05:00:00,
2013-10-01 01:03:00,46.9,43.8,29.96,West,265,0.0,0.0,89,0.00,CLR,SCT,0.00,,WeatherDisplay:10.37,2013-10-01 05:03:00,
2013-10-01 01:18:00,47.3,44.2,29.96,SW,215,0.0,0.0,89,0.00,CLR,SCT,0.00,,WeatherDisplay:10.37,2013-10-01 05:18:00,
2013-10-01 01:33:00,47.5,44.4,29.96,SW,215,0.0,0.0,89,0.00,CLR,SCT,0.00,,WeatherDisplay:10.37,2013-10-01 05:33:00,
2013-10-01 01:48:00,47.3,44.2,29.95,WSW,245,0.0,0.0,89,0.00,CLR,SCT,0.00,,WeatherDisplay:10.37,2013-10-01 05:48:00,
2013-10-01 02:00:00,43.8,40.5,29.95,West,270,0.0,0.0,88,0.00,CL,CL,0.36,0.0,WeatherDisplay:10.37,2013-10-01 06:00:00,
2013-10-01 02:03:00,46.9,42.6,29.96,WSW,247,0.0,0.0,85,0.00,CLR,SCT,0.00,,WeatherDisplay:10.37,2013-10-01 06:03:00,
2013-10-01 02:18:00,46.6,42.3,29.96,WSW,242,0.0,0.0,85,0.00,CLR,SCT,0.00,,WeatherDisplay:10.37,2013-10-01 06:18:00,
2013-10-01 02:33:00,46.4,42.1,29.95,WSW,246,0.0,0.0,85,0.00,CLR,SCT,0.00,,WeatherDisplay:10.37,2013-10-01 06:33:00,
2013-10-01 02:48:00,46.6,42.3,29.95,WSW,258,0.0,0.0,85,0.00,CLR,SCT,0.00,,WeatherDisplay:10.37,2013-10-01 06:48:00,
2013-10-01 03:00:00,44.2,42.0,29.96,WSW,248,0.0,0.0,92,0.00,CL,CL,0.36,0.0,WeatherDisplay:10.37,2013-10-01 07:00:00,
2013-10-01 03:03:00,46.3,43.2,29.95,West,280,0.0,0.0,89,0.00,CLR,SCT,0.00,,WeatherDisplay:10.37,2013-10-01 07:03:00,
2013-10-01 03:18:00,46.2,43.1,29.95,WNW,298,0.0,0.0,89,0.00,CLR,SCT,0.00,,WeatherDisplay:10.37,2013-10-01 07:18:00,
2013-10-01 03:33:00,46.0,42.9,29.95,SW,234,0.0,0.0,89,0.00,CLR,SCT,0.00,,WeatherDisplay:10.37,2013-10-01 07:33:00,
2013-10-01 03:48:00,45.9,42.8,29.96,WNW,285,0.0,0.0,89,0.00,CLR,SCT,0.00,,WeatherDisplay:10.37,2013-10-01 07:48:00,
2013-10-01 04:00:00,47.7,45.5,29.96,West,270,0.0,0.0,92,0.00,CL,CL,0.36,0.0,WeatherDisplay:10.37,2013-10-01 08:00:00,
2013-10-01 04:03:00,45.5,43.3,29.95,NW,309,0.0,0.0,92,0.00,CLR,SCT,0.00,,WeatherDisplay:10.37,2013-10-01 08:03:00,
2013-10-01 04:18:00,45.1,42.9,29.95,WNW,283,0.0,0.0,92,0.00,CLR,SCT,0.00,,WeatherDisplay:10.37,2013-10-01 08:18:00,
2013-10-01 04:33:00,44.8,42.6,29.95,West,265,0.0,0.0,92,0.00,CLR,SCT,0.00,,WeatherDisplay:10.37,2013-10-01 08:33:00,
2013-10-01 04:48:00,44.6,42.4,29.95,WSW,249,0.0,0.0,92,0.00,CLR,SCT,0.00,,WeatherDisplay:10.37,2013-10-01 08:48:00,
2013-10-01 05:00:00,58.1,53.6,29.97,WNW,293,3.0,7.0,85,0.00,CL,CL,0.36,0.0,WeatherDisplay:10.37,2013-10-01 09:00:00,
2013-10-01 05:03:00,44.6,41.3,29.95,West,266,0.0,0.0,88,0.00,CLR,SCT,0.00,,WeatherDisplay:10.37,2013-10-01 09:03:00,
2013-10-01 05:18:00,44.3,41.0,29.95,WNW,291,0.0,0.0,88,0.00,CLR,SCT,0.00,,WeatherDisplay:10.37,2013-10-01 09:18:00,
2013-10-01 05:33:00,44.1,40.8,29.95,WSW,245,0.0,0.0,88,0.00,CLR,SCT,0.00,,WeatherDisplay:10.37,2013-10-01 09:33:00,
2013-10-01 05:48:00,43.7,40.4,29.95,West,268,0.0,0.0,88,0.00,CLR,SCT,0.00,,WeatherDisplay:10.37,2013-10-01 09:48:00,
2013-10-01 06:00:00,69.8,57.5,29.96,West,270,2.0,3.0,65,0.00,CL,CL,0.36,0.0,WeatherDisplay:10.37,2013-10-01 10:00:00,
2013-10-01 06:03:00,43.5,41.3,29.96,West,269,0.0,0.0,92,0.00,CLR,SCT,0.00,,WeatherDisplay:10.37,2013-10-01 10:03:00,
2013-10-01 06:18:00,43.5,41.3,29.96,WNW,285,0.0,0.0,92,0.00,CLR,SCT,0.00,,WeatherDisplay:10.37,2013-10-01 10:18:00,
2013-10-01 06:33:00,44.4,42.2,29.96,WNW,301,0.0,0.0,92,0.00,CLR,SCT,0.00,,WeatherDisplay:10.37,2013-10-01 10:33:00,
2013-10-01 06:48:00,44.2,42.0,29.96,West,269,0.0,0.0,92,0.00,CLR,SCT,0.00,,WeatherDisplay:10.37,2013-10-01 10:48:00,
2013-10-01 07:00:00,71.2,51.1,29.95,West,270,5.0,7.0,49,0.00,CL,CL,0.36,0.0,WeatherDisplay:10.37,2013-10-01 11:00:00,
2013-10-01 07:03:00,44.2,42.0,29.96,West,263,0.0,0.0,92,0.00,CLR,SCT,0.00,,WeatherDisplay:10.37,2013-10-01 11:03:00,
2013-10-01 07:18:00,44.6,42.4,29.96,West,278,0.0,0.0,92,0.00,CLR,SCT,0.00,,WeatherDisplay:10.37,2013-10-01 11:18:00,
2013-10-01 07:33:00,46.2,44.0,29.97,WNW,300,0.0,0.0,92,0.00,CLR,SCT,0.00,,WeatherDisplay:10.37,2013-10-01 11:33:00,
2013-10-01 07:48:00,46.8,44.6,29.96,WNW,289,0.0,0.0,92,0.00,CLR,SCT,0.00,,WeatherDisplay:10.37,2013-10-01 11:48:00,
2013-10-01 08:00:00,74.4,47.9,29.93,NW,315,5.0,7.0,39,0.00,CL,CL,0.36,0.0,WeatherDisplay:10.37,2013-10-01 12:00:00,
2013-10-01 08:03:00,47.9,44.3,29.96,WNW,294,0.0,0.0,87,0.00,CLR,SCT,0.00,,WeatherDisplay:10.37,2013-10-01 12:03:00,
2013-10-01 08:18:00,49.8,45.5,29.97,NNW,329,0.0,0.0,85,0.00,CLR,SCT,0.00,,WeatherDisplay:10.37,2013-10-01 12:18:00,
2013-10-01 08:33:00,52.1,47.7,29.97,NNW,346,0.0,3.0,85,0.00,CLR,SCT,0.00,,WeatherDisplay:10.37,2013-10-01 12:33:00,
2013-10-01 08:48:00,55.5,51.1,29.97,WNW,294,3.0,6.0,85,0.00,CLR,SCT,0.00,,WeatherDisplay:10.37,2013-10-01 12:48:00,
2013-10-01 09:00:00,76.0,48.5,29.91,West,270,6.0,8.0,38,0.00,CL,CL,0.36,0.0,WeatherDisplay:10.37,2013-10-01 13:00:00,
2013-10-01 09:03:00,59.2,49.5,29.97,West,273,2.0,7.0,70,0.00,CLR,SCT,0.00,,WeatherDisplay:10.37,2013-10-01 13:03:00,
2013-10-01 09:18:00,63.0,51.1,29.97,West,260,0.0,4.0,65,0.00,CLR,SCT,0.00,,WeatherDisplay:10.37,2013-10-01 13:18:00,
2013-10-01 09:33:00,65.5,53.4,29.97,WSW,244,3.0,5.0,65,0.00,CLR,SCT,0.00,,WeatherDisplay:10.37,2013-10-01 13:33:00,
2013-10-01 09:48:00,67.6,55.4,29.97,SW,230,3.0,5.0,65,0.00,CLR,SCT,0.00,,WeatherDisplay:10.37,2013-10-01 13:48:00,
2013-10-01 10:00:00,78.6,47.1,29.89,WNW,293,3.0,5.0,33,0.00,CL,CL,0.36,0.0,WeatherDisplay:10.37,2013-10-01 14:00:00,
2013-10-01 10:02:00,70.0,52.1,29.96,NNW,337,3.0,5.0,53,0.00,CLR,SCT,0.00,,WeatherDisplay:10.37,2013-10-01 14:02:00,
2013-10-01 10:18:00,69.8,49.8,29.96,West,275,3.0,7.0,49,0.00,CLR,SCT,0.00,,WeatherDisplay:10.37,2013-10-01 14:18:00,
2013-10-01 10:33:00,70.5,50.4,29.96,NW,305,3.0,10.0,49,0.00,CLR,SCT,0.00,,WeatherDisplay:10.37,2013-10-01 14:33:00,
2013-10-01 10:48:00,71.1,51.0,29.96,NW,308,5.0,7.0,49,0.00,CLR,SCT,0.00,,WeatherDisplay:10.37,2013-10-01 14:48:00,
2013-10-01 11:00:00,78.4,46.9,29.87,NE,45,2.0,3.0,33,0.00,CL,CL,0.36,0.0,WeatherDisplay:10.37,2013-10-01 15:00:00,
2013-10-01 11:03:00,71.4,46.5,29.95,West,267,5.0,12.0,41,0.00,CLR,SCT,0.00,,WeatherDisplay:10.37,2013-10-01 15:03:00,
2013-10-01 11:18:00,72.3,45.9,29.95,NNW,337,2.0,9.0,39,0.00,CLR,SCT,0.00,,WeatherDisplay:10.37,2013-10-01 15:18:00,
2013-10-01 11:33:00,72.9,46.5,29.94,WNW,282,7.0,10.0,39,0.00,CLR,SCT,0.00,,WeatherDisplay:10.37,2013-10-01 15:33:00,
2013-10-01 11:48:00,73.7,47.2,29.94,WNW,298,3.0,9.0,39,0.00,CLR,SCT,0.00,,WeatherDisplay:10.37,2013-10-01 15:48:00,
2013-10-01 12:00:00,77.6,45.4,29.85,WNW,293,5.0,6.0,32,0.00,CL,CL,0.36,0.0,WeatherDisplay:10.37,2013-10-01 16:00:00,
2013-10-01 12:03:00,73.8,46.6,29.93,NW,317,6.0,12.0,38,0.00,CLR,SCT,0.00,,WeatherDisplay:10.37,2013-10-01 16:03:00,
2013-10-01 12:18:00,74.7,47.4,29.92,NW,326,5.0,9.0,38,0.00,CLR,SCT,0.00,,WeatherDisplay:10.37,2013-10-01 16:18:00,
2013-10-01 12:34:00,76.7,49.1,29.91,West,274,6.0,10.0,38,0.00,CLR,SCT,0.00,,WeatherDisplay:10.37,2013-10-01 16:34:00,
2013-10-01 12:48:00,76.4,48.9,29.92,NW,323,5.0,9.0,38,0.00,CLR,SCT,0.00,,WeatherDisplay:10.37,2013-10-01 16:48:00,
2013-10-01 13:00:00,76.5,47.6,29.85,NW,315,2.0,5.0,36,0.00,CL,CL,0.36,0.0,WeatherDisplay:10.37,2013-10-01 17:00:00,
2013-10-01 13:04:00,76.1,45.7,29.91,NW,305,5.0,9.0,34,0.00,CLR,SCT,0.00,,WeatherDisplay:10.37,2013-10-01 17:04:00,
2013-10-01 13:19:00,77.0,45.7,29.90,West,273,6.0,9.0,33,0.00,CLR,SCT,0.00,,WeatherDisplay:10.37,2013-10-01 17:19:00,
2013-10-01 13:34:00,77.8,46.4,29.90,NNW,334,5.0,9.0,33,0.00,CLR,SCT,0.00,,WeatherDisplay:10.37,2013-10-01 17:34:00,
2013-10-01 13:49:00,78.5,47.0,29.89,NNW,344,3.0,8.0,33,0.00,CLR,SCT,0.00,,WeatherDisplay:10.37,2013-10-01 17:49:00,
2013-10-01 14:00:00,72.5,44.7,29.86,SSW,203,0.0,0.0,37,0.00,CL,CL,0.36,0.0,WeatherDisplay:10.37,2013-10-01 18:00:00,
2013-10-01 14:04:00,79.1,47.5,29.87,NW,316,3.0,7.0,33,0.00,CLR,SCT,0.00,,WeatherDisplay:10.37,2013-10-01 18:04:00,
2013-10-01 14:19:00,79.3,47.7,29.87,West,274,5.0,10.0,33,0.00,CLR,SCT,0.00,,WeatherDisplay:10.37,2013-10-01 18:19:00,
2013-10-01 14:34:00,79.1,47.5,29.87,NW,316,6.0,10.0,33,0.00,CLR,SCT,0.00,,WeatherDisplay:10.37,2013-10-01 18:34:00,
2013-10-01 14:49:00,79.2,47.6,29.87,West,259,3.0,14.0,33,0.00,CLR,SCT,0.00,,WeatherDisplay:10.37,2013-10-01 18:49:00,
2013-10-01 15:00:00,66.4,45.0,29.87,South,180,0.0,0.0,46,0.00,CL,CL,0.36,0.0,WeatherDisplay:10.37,2013-10-01 19:00:00,
2013-10-01 15:04:00,78.8,46.4,29.87,West,271,3.0,8.0,32,0.00,CLR,SCT,0.00,,WeatherDisplay:10.37,2013-10-01 19:04:00,
2013-10-01 15:19:00,78.6,46.3,29.86,WSW,257,3.0,8.0,32,0.00,CLR,SCT,0.00,,WeatherDisplay:10.37,2013-10-01 19:19:00,
2013-10-01 15:33:00,78.3,46.0,29.85,West,280,5.0,9.0,32,0.00,CLR,SCT,0.00,,WeatherDisplay:10.37,2013-10-01 19:33:00,
2013-10-01 15:48:00,78.4,46.1,29.86,WNW,301,6.0,12.0,32,0.00,CLR,SCT,0.00,,WeatherDisplay:10.37,2013-10-01 19:48:00,
2013-10-01 16:00:00,62.6,50.7,29.89,South,180,0.0,0.0,65,0.00,CL,CL,0.36,0.0,WeatherDisplay:10.37,2013-10-01 20:00:00,
2013-10-01 16:04:00,77.7,48.6,29.86,West,269,2.0,10.0,36,0.00,CLR,SCT,0.00,,WeatherDisplay:10.37,2013-10-01 20:04:00,
2013-10-01 16:18:00,77.5,48.4,29.86,WNW,285,7.0,13.0,36,0.00,CLR,SCT,0.00,,WeatherDisplay:10.37,2013-10-01 20:18:00,
2013-10-01 16:34:00,77.2,48.2,29.85,WNW,283,5.0,12.0,36,0.00,CLR,SCT,0.00,,WeatherDisplay:10.37,2013-10-01 20:34:00,
2013-10-01 16:48:00,76.8,47.8,29.85,WNW,298,3.0,9.0,36,0.00,CLR,SCT,0.00,,WeatherDisplay:10.37,2013-10-01 20:48:00,
2013-10-01 17:00:00,64.4,55.9,29.90,WNW,293,0.0,0.0,74,0.00,CL,CL,0.36,0.0,WeatherDisplay:10.37,2013-10-01 21:00:00,
2013-10-01 17:03:00,76.3,48.1,29.85,WNW,297,5.0,7.0,37,0.00,CLR,SCT,0.00,,WeatherDisplay:10.37,2013-10-01 21:03:00,
2013-10-01 17:18:00,76.6,48.4,29.86,WSW,250,2.0,9.0,37,0.00,CLR,SCT,0.00,,WeatherDisplay:10.37,2013-10-01 21:18:00,
2013-10-01 17:34:00,75.4,47.3,29.86,West,265,0.0,9.0,37,0.00,CLR,SCT,0.00,,WeatherDisplay:10.37,2013-10-01 21:34:00,
2013-10-01 17:48:00,73.8,45.9,29.86,WNW,288,0.0,5.0,37,0.00,CLR,SCT,0.00,,WeatherDisplay:10.37,2013-10-01 21:48:00,
2013-10-01 18:00:00,62.8,57.6,29.89,West,270,0.0,0.0,83,0.00,CL,CL,0.36,0.0,WeatherDisplay:10.37,2013-10-01 22:00:00,
2013-10-01 18:03:00,72.3,49.2,29.86,WSW,244,0.0,0.0,44,0.00,CLR,SCT,0.00,,WeatherDisplay:10.37,2013-10-01 22:03:00,
2013-10-01 18:18:00,70.9,49.1,29.86,West,267,0.0,0.0,46,0.00,CLR,SCT,0.00,,WeatherDisplay:10.37,2013-10-01 22:18:00,
2013-10-01 18:34:00,69.4,47.7,29.87,SW,218,0.0,0.0,46,0.00,CLR,SCT,0.00,,WeatherDisplay:10.37,2013-10-01 22:34:00,
2013-10-01 18:48:00,67.6,46.0,29.87,SSW,209,0.0,0.0,46,0.00,CLR,SCT,0.00,,WeatherDisplay:10.37,2013-10-01 22:48:00,
2013-10-01 19:00:00,64.9,59.6,29.89,SW,225,5.0,7.0,83,0.00,CL,CL,0.36,0.0,WeatherDisplay:10.37,2013-10-01 23:00:00,
2013-10-01 19:03:00,65.9,52.1,29.88,SSW,203,0.0,0.0,61,0.00,CLR,SCT,0.00,,WeatherDisplay:10.37,2013-10-01 23:03:00,
2013-10-01 19:18:00,64.9,52.8,29.88,SW,219,0.0,0.0,65,0.00,CLR,SCT,0.00,,WeatherDisplay:10.37,2013-10-01 23:18:00,
2013-10-01 19:33:00,63.9,51.9,29.88,SSW,211,0.0,0.0,65,0.00,CLR,SCT,0.00,,WeatherDisplay:10.37,2013-10-01 23:33:00,
2013-10-01 19:48:00,63.1,51.1,29.89,SW,214,0.0,0.0,65,0.00,CLR,SCT,0.00,,WeatherDisplay:10.37,2013-10-01 23:48:00,
2013-10-01 20:00:00,63.1,53.9,29.89,WNW,293,2.0,3.0,72,0.00,CL,CL,0.36,0.0,WeatherDisplay:10.37,2013-10-02 00:00:00,
2013-10-01 20:03:00,62.6,53.4,29.89,SW,227,0.0,0.0,72,0.00,CLR,SCT,0.00,,WeatherDisplay:10.37,2013-10-02 00:03:00,
2013-10-01 20:18:00,63.5,55.1,29.90,WSW,244,0.0,0.0,74,0.00,CLR,SCT,0.00,,WeatherDisplay:10.37,2013-10-02 00:18:00,
2013-10-01 20:33:00,63.9,55.4,29.90,West,275,0.0,0.0,74,0.00,CLR,SCT,0.00,,WeatherDisplay:10.37,2013-10-02 00:33:00,
2013-10-01 20:48:00,64.4,55.9,29.89,West,277,2.0,4.0,74,0.00,CLR,SCT,0.00,,WeatherDisplay:10.37,2013-10-02 00:48:00,
2013-10-01 21:00:00,63.7,53.7,29.89,SW,225,2.0,3.0,70,0.00,CL,CL,0.36,0.0,WeatherDisplay:10.37,2013-10-02 01:00:00,
2013-10-01 21:03:00,64.4,58.4,29.90,West,260,0.0,3.0,81,0.00,CLR,SCT,0.00,,WeatherDisplay:10.37,2013-10-02 01:03:00,
2013-10-01 21:18:00,63.2,57.9,29.90,WNW,296,0.0,0.0,83,0.00,CLR,SCT,0.00,,WeatherDisplay:10.37,2013-10-02 01:18:00,
2013-10-01 21:33:00,63.1,57.9,29.90,West,266,0.0,0.0,83,0.00,CLR,SCT,0.00,,WeatherDisplay:10.37,2013-10-02 01:33:00,
2013-10-01 21:48:00,62.2,57.0,29.90,WNW,303,0.0,0.0,83,0.00,CLR,SCT,0.00,,WeatherDisplay:10.37,2013-10-02 01:48:00,
2013-10-01 22:00:00,63.1,53.9,29.89,NE,45,5.0,6.0,72,0.00,CL,CL,0.36,0.0,WeatherDisplay:10.37,2013-10-02 02:00:00,
2013-10-01 22:03:00,62.8,57.6,29.89,West,273,0.0,0.0,83,0.00,CLR,SCT,0.00,,WeatherDisplay:10.37,2013-10-02 02:03:00,
2013-10-01 22:18:00,64.1,58.9,29.89,West,270,5.0,5.0,83,0.00,CLR,SCT,0.00,,WeatherDisplay:10.37,2013-10-02 02:18:00,
2013-10-01 22:33:00,65.1,59.8,29.89,West,259,3.0,7.0,83,0.00,CLR,SCT,0.00,,WeatherDisplay:10.37,2013-10-02 02:33:00,
2013-10-01 22:48:00,64.9,59.6,29.89,WNW,299,2.0,5.0,83,0.00,CLR,SCT,0.00,,WeatherDisplay:10.37,2013-10-02 02:48:00,
2013-10-01 23:00:00,62.2,53.1,29.88,WNW,293,5.0,8.0,72,0.00,CL,CL,0.36,0.0,WeatherDisplay:10.37,2013-10-02 03:00:00,
2013-10-01 23:03:00,64.9,56.8,29.89,WSW,245,3.0,7.0,75,0.00,CLR,SCT,0.00,,WeatherDisplay:10.37,2013-10-02 03:03:00,
2013-10-01 23:18:00,64.9,55.7,29.89,West,262,2.0,6.0,72,0.00,CLR,SCT,0.00,,WeatherDisplay:10.37,2013-10-02 03:18:00,
2013-10-01 23:33:00,64.4,55.2,29.89,WNW,288,0.0,6.0,72,0.00,CLR,SCT,0.00,,WeatherDisplay:10.37,2013-10-02 03:33:00,
2013-10-01 23:48:00,63.5,54.3,29.89,NW,308,0.0,5.0,72,0.00,CLR,SCT,0.00,,WeatherDisplay:10.37,2013-10-02 03:48:00,